DISCOBAY Weather Reports


time (UTC)temp
C
wind
direction
speed
KPH
gust
KPH
rain 1hr
cm
rain 24hr
cm
rain mn
cm
humidity
%
barometer
mb
20260506160056 10 34 0.0 3.2 0.00 0.00 0.00 94 1020.2
20260506154602 10 34 1.6 4.8 0.00 0.00 0.00 94 1020.0
20260506153053 11 0 0.0 0.0 0.00 0.00 0.00 95 1020.0
20260506151558 10 81 0.0 4.8 0.00 0.00 0.00 95 1019.7
20260506150053 10 0 0.0 0.0 0.00 0.00 0.00 95 1019.4
20260506144553 10 0 0.0 1.6 0.00 0.00 0.00 95 1019.3
20260506143052 10 0 0.0 1.6 0.00 0.00 0.00 95 1019.5
20260506141558 10 0 0.0 4.8 0.00 0.00 0.00 95 1019.4
20260506140100 10 0 0.0 3.2 0.00 0.00 0.00 95 1019.0
20260506134553 10 0 0.0 0.0 0.00 0.00 0.00 95 1019.1
20260506133102 10 0 0.0 3.2 0.00 0.00 0.00 94 1018.9
20260506131557 10 0 0.0 0.0 0.00 0.00 0.00 94 1018.9
20260506130055 10 0 0.0 1.6 0.00 0.00 0.00 94 1018.9
20260506124554 10 0 0.0 1.6 0.00 0.00 0.00 94 1018.9
20260506123052 10 0 0.0 4.8 0.00 0.00 0.00 94 1018.9
20260506121600 10 59 0.0 4.8 0.00 0.00 0.00 94 1018.8
20260506120109 10 59 1.6 6.4 0.00 0.00 0.00 93 1018.8
20260506114610 10 59 1.6 4.8 0.00 0.00 0.00 93 1018.8
20260506113053 10 0 0.0 0.0 0.00 0.00 0.00 93 1018.6
20260506111555 10 0 0.0 0.0 0.00 0.00 0.00 94 1018.6
20260506110054 10 0 0.0 3.2 0.00 0.00 0.00 94 1018.4
20260506104554 10 0 0.0 1.6 0.00 0.00 0.00 94 1018.2
20260506103054 10 0 0.0 0.0 0.00 0.00 0.00 94 1018.0
20260506101553 10 0 0.0 3.2 0.00 0.00 0.00 94 1017.9
20260506100053 10 0 0.0 3.2 0.00 0.00 0.00 94 1017.9
20260506094554 10 0 0.0 1.6 0.00 0.00 0.00 94 1017.9
20260506093110 10 0 0.0 0.0 0.00 0.00 0.00 94 1017.9
20260506091554 10 0 0.0 0.0 0.00 0.00 0.00 94 1017.9
20260506090113 10 0 0.0 0.0 0.00 0.00 0.00 94 1017.9
20260506084557 9 0 0.0 0.0 0.00 0.00 0.00 94 1017.8
20260506083054 9 0 0.0 0.0 0.00 0.00 0.00 93 1017.9
20260506081602 9 0 0.0 0.0 0.00 0.00 0.00 93 1017.7
20260506080111 9 0 0.0 0.0 0.00 0.00 0.00 93 1017.4
20260506073105 9 0 0.0 0.0 0.00 0.00 0.00 92 1017.1
20260506071554 10 0 0.0 0.0 0.00 0.00 0.00 91 1017.0
20260506061602 10 59 0.0 4.8 0.00 0.00 0.00 91 1016.7
20260506060201 10 59 0.0 4.8 0.00 0.00 0.00 91 1016.7
20260506044608 11 59 0.0 6.4 0.00 0.00 0.00 89 1016.4
20260506043055 11 59 3.2 6.4 0.00 0.00 0.00 88 1016.2
20260506041606 11 59 3.2 6.4 0.00 0.00 0.00 88 1016.0
20260506040101 11 59 1.6 4.8 0.00 0.00 0.00 87 1015.8
20260506034553 12 59 0.0 3.2 0.00 0.00 0.00 86 1015.6
20260506033055 12 0 0.0 4.8 0.00 0.00 0.00 85 1015.5
20260506031553 12 59 1.6 4.8 0.00 0.00 0.00 83 1015.5
20260506030054 13 0 0.0 3.2 0.00 0.00 0.00 82 1015.5
20260506024600 13 0 0.0 3.2 0.00 0.00 0.00 80 1015.6
20260506023056 14 59 0.0 3.2 0.00 0.00 0.00 79 1015.5
20260506021554 14 0 0.0 1.6 0.00 0.00 0.00 77 1015.6
20260506020121 15 0 0.0 3.2 0.00 0.00 0.00 76 1015.5
20260506014554 15 59 0.0 6.4 0.00 0.00 0.00 77 1015.6
20260506013051 15 0 0.0 4.8 0.00 0.00 0.00 76 1015.7
20260506011552 15 0 0.0 4.8 0.00 0.00 0.00 76 1015.7
20260506010055 15 321 0.0 4.8 0.00 0.00 0.00 76 1015.7
20260506004551 15 0 1.6 4.8 0.00 0.00 0.00 74 1015.8
20260506003056 16 0 0.0 4.8 0.00 0.00 0.00 74 1015.8
20260506001606 15 320 0.0 6.4 0.00 0.00 0.00 75 1015.7
20260506000122 16 0 1.6 4.8 0.00 0.00 0.00 74 1015.9
20260505234552 16 0 1.6 6.4 0.00 0.00 0.00 73 1016.0
20260505233056 16 285 1.6 4.8 0.00 0.00 0.00 75 1016.1
20260505231557 16 271 0.0 6.4 0.00 0.00 0.00 73 1016.2
20260505230054 17 332 3.2 9.7 0.00 0.00 0.00 73 1016.3
20260505224552 17 284 1.6 11.3 0.00 0.00 0.00 75 1016.3
20260505223105 16 290 3.2 14.5 0.00 0.00 0.00 76 1016.3
20260505221601 16 253 6.4 14.5 0.00 0.00 0.00 79 1016.3
20260505220105 16 265 8.0 14.5 0.00 0.00 0.00 79 1016.5
20260505214601 15 246 3.2 14.5 0.00 0.00 0.00 81 1016.8
20260505213052 15 249 6.4 12.9 0.00 0.00 0.00 80 1016.8
20260505211626 14 242 6.4 12.9 0.00 0.00 0.00 85 1016.8
20260505210100 13 242 6.4 11.3 0.00 0.00 0.00 86 1016.8
20260505204602 13 242 4.8 8.0 0.00 0.00 0.00 87 1016.9
20260505203056 12 244 4.8 8.0 0.00 0.00 0.00 88 1017.0
20260505201559 12 237 4.8 8.0 0.00 0.00 0.00 89 1017.0
20260505200059 12 236 4.8 11.3 0.00 0.00 0.00 89 1016.9
20260505194558 12 232 3.2 8.0 0.00 0.00 0.00 90 1017.0
20260505193056 12 229 4.8 8.0 0.00 0.00 0.00 90 1017.0
20260505191602 12 227 4.8 8.0 0.00 0.00 0.00 91 1016.8
20260505190114 12 221 3.2 6.4 0.00 0.00 0.00 91 1016.7
20260505184554 12 221 1.6 4.8 0.00 0.00 0.00 91 1016.8
20260505183053 12 221 3.2 4.8 0.00 0.00 0.00 91 1016.8
20260505181633 12 221 0.0 4.8 0.00 0.00 0.00 92 1016.6
20260505180104 12 0 0.0 4.8 0.00 0.00 0.00 92 1016.5
20260505174556 12 0 1.6 4.8 0.00 0.00 0.00 92 1016.4
20260505173054 11 221 1.6 3.2 0.00 0.00 0.00 92 1016.4
20260505171601 11 221 1.6 3.2 0.00 0.00 0.00 93 1016.4
20260505170053 11 221 1.6 4.8 0.00 0.00 0.00 93 1016.3
20260505164554 11 221 1.6 4.8 0.00 0.00 0.00 93 1016.4
20260505163054 11 0 0.0 3.2 0.00 0.00 0.00 93 1016.3
20260505161553 11 0 0.0 3.2 0.00 0.00 0.00 93 1016.2